Time,TemperatureF,DewpointF,PressureIn,WindDirection,WindDirectionDegrees,WindSpeedMPH,WindSpeedGustMPH,Humidity,HourlyPrecipIn,Conditions,Clouds,dailyrainin,SoftwareType,DateUTC
2013-11-12 00:05:00,47.8,33.3,29.87,West,264,0.0,0.0,57,0.00,,,0.00,Wunderground v.1.15,2013-11-12 05:05:00,
2013-11-12 00:10:00,47.8,33.3,29.86,SSW,213,1.0,3.0,57,0.00,,,0.00,Wunderground v.1.15,2013-11-12 05:10:00,
2013-11-12 00:20:00,47.9,33.4,29.86,WSW,244,1.0,1.0,57,0.00,,,0.00,Wunderground v.1.15,2013-11-12 05:20:00,
2013-11-12 00:30:00,48.0,33.5,29.86,WSW,244,1.0,1.0,57,0.00,,,0.00,Wunderground v.1.15,2013-11-12 05:30:00,
2013-11-12 00:35:00,48.0,33.5,29.86,West,261,1.0,2.0,57,0.00,,,0.00,Wunderground v.1.15,2013-11-12 05:35:00,
2013-11-12 00:45:00,48.2,33.2,29.86,WNW,290,2.0,3.0,56,0.00,,,0.00,Wunderground v.1.15,2013-11-12 05:45:00,
2013-11-12 00:55:00,48.3,33.3,29.85,West,259,1.0,1.0,56,0.00,,,0.00,Wunderground v.1.15,2013-11-12 05:55:00,
2013-11-12 01:00:00,48.3,33.3,29.85,West,259,0.0,0.0,56,0.00,,,0.00,Wunderground v.1.15,2013-11-12 06:00:00,
2013-11-12 01:05:00,48.3,33.3,29.85,West,259,0.0,0.0,56,0.00,,,0.00,Wunderground v.1.15,2013-11-12 06:05:00,
2013-11-12 01:15:00,48.3,33.3,29.86,WNW,286,1.0,1.0,56,0.00,,,0.00,Wunderground v.1.15,2013-11-12 06:15:00,
2013-11-12 01:20:00,48.3,33.3,29.86,WNW,288,1.0,4.0,56,0.00,,,0.00,Wunderground v.1.15,2013-11-12 06:20:00,
2013-11-12 01:30:00,48.4,33.4,29.86,West,273,2.0,2.0,56,0.00,,,0.00,Wunderground v.1.15,2013-11-12 06:30:00,
2013-11-12 01:35:00,48.6,34.0,29.86,WNW,299,3.0,3.0,57,0.00,,,0.00,Wunderground v.1.15,2013-11-12 06:35:00,
2013-11-12 01:45:00,48.8,34.7,29.87,WNW,297,4.0,7.0,58,0.00,,,0.00,Wunderground v.1.15,2013-11-12 06:45:00,
2013-11-12 01:50:00,48.8,35.9,29.87,WNW,285,5.0,8.0,61,0.00,,,0.00,Wunderground v.1.15,2013-11-12 06:50:00,
2013-11-12 01:55:00,48.5,36.5,29.87,WNW,302,6.0,8.0,63,0.00,,,0.00,Wunderground v.1.15,2013-11-12 06:55:00,
2013-11-12 02:05:00,48.0,37.2,29.87,WNW,286,5.0,8.0,66,0.00,,,0.00,Wunderground v.1.15,2013-11-12 07:05:00,
2013-11-12 02:10:00,47.8,37.0,29.87,West,275,5.0,5.0,66,0.00,,,0.00,Wunderground v.1.15,2013-11-12 07:10:00,
2013-11-12 02:20:00,47.2,37.5,29.87,West,265,4.0,6.0,69,0.00,,,0.00,Wunderground v.1.15,2013-11-12 07:20:00,
2013-11-12 02:25:00,46.9,38.0,29.87,WNW,302,3.0,6.0,71,0.00,,,0.00,Wunderground v.1.15,2013-11-12 07:25:00,
2013-11-12 02:35:00,46.3,38.1,29.87,West,271,3.0,10.0,73,0.00,,,0.00,Wunderground v.1.15,2013-11-12 07:35:00,
2013-11-12 02:40:00,46.0,38.5,29.87,West,281,4.0,4.0,75,0.00,,,0.00,Wunderground v.1.15,2013-11-12 07:40:00,
2013-11-12 02:50:00,45.5,38.7,29.87,WSW,242,3.0,5.0,77,0.00,,,0.01,Wunderground v.1.15,2013-11-12 07:50:00,
2013-11-12 03:00:00,45.1,39.0,29.87,WSW,249,3.0,3.0,79,0.00,,,0.01,Wunderground v.1.15,2013-11-12 08:00:00,
2013-11-12 03:05:00,44.9,39.1,29.86,NNW,338,2.0,3.0,80,0.00,,,0.01,Wunderground v.1.15,2013-11-12 08:05:00,
2013-11-12 03:10:00,44.7,39.2,29.86,WNW,298,2.0,3.0,81,0.00,,,0.01,Wunderground v.1.15,2013-11-12 08:10:00,
2013-11-12 03:20:00,44.5,39.0,29.86,NW,312,2.0,2.0,81,0.00,,,0.01,Wunderground v.1.15,2013-11-12 08:20:00,
2013-11-12 03:25:00,44.4,39.2,29.86,West,269,1.0,2.0,82,0.00,,,0.01,Wunderground v.1.15,2013-11-12 08:25:00,
2013-11-12 03:35:00,44.2,39.4,29.86,WNW,302,1.0,1.0,83,0.00,,,0.01,Wunderground v.1.15,2013-11-12 08:35:00,
2013-11-12 03:40:00,44.1,39.3,29.86,WSW,249,1.0,3.0,83,0.00,,,0.01,Wunderground v.1.15,2013-11-12 08:40:00,
2013-11-12 03:50:00,44.0,39.2,29.87,West,271,2.0,2.0,83,0.00,,,0.01,Wunderground v.1.15,2013-11-12 08:50:00,
2013-11-12 03:55:00,44.0,39.5,29.87,SW,233,2.0,2.0,84,0.00,,,0.01,Wunderground v.1.15,2013-11-12 08:55:00,
2013-11-12 04:05:00,43.9,39.4,29.87,West,281,2.0,2.0,84,0.00,,,0.02,Wunderground v.1.15,2013-11-12 09:05:00,
2013-11-12 04:10:00,43.8,39.3,29.87,West,275,2.0,2.0,84,0.00,,,0.02,Wunderground v.1.15,2013-11-12 09:10:00,
2013-11-12 04:20:00,43.8,39.6,29.88,West,278,2.0,2.0,85,0.00,,,0.03,Wunderground v.1.15,2013-11-12 09:20:00,
2013-11-12 04:25:00,43.7,39.5,29.88,West,265,1.0,3.0,85,0.00,,,0.03,Wunderground v.1.15,2013-11-12 09:25:00,
2013-11-12 04:35:00,43.6,39.4,29.88,WNW,283,2.0,2.0,85,0.00,,,0.03,Wunderground v.1.15,2013-11-12 09:35:00,
2013-11-12 04:45:00,43.4,39.5,29.88,West,279,1.0,1.0,86,0.00,,,0.03,Wunderground v.1.15,2013-11-12 09:45:00,
2013-11-12 04:55:00,43.3,39.4,29.88,WNW,289,2.0,3.0,86,0.00,,,0.04,Wunderground v.1.15,2013-11-12 09:55:00,
2013-11-12 05:05:00,43.2,39.3,29.88,WNW,295,2.0,2.0,86,0.00,,,0.04,Wunderground v.1.15,2013-11-12 10:05:00,
2013-11-12 05:15:00,43.1,39.2,29.88,West,265,2.0,3.0,86,0.00,,,0.04,Wunderground v.1.15,2013-11-12 10:15:00,
2013-11-12 05:25:00,42.9,39.3,29.89,WNW,302,2.0,3.0,87,0.00,,,0.04,Wunderground v.1.15,2013-11-12 10:25:00,
2013-11-12 05:30:00,42.9,39.3,29.89,NW,313,2.0,4.0,87,0.00,,,0.05,Wunderground v.1.15,2013-11-12 10:30:00,
2013-11-12 05:40:00,42.4,38.5,29.90,NW,311,3.0,3.0,86,0.00,,,0.05,Wunderground v.1.15,2013-11-12 10:40:00,
2013-11-12 05:45:00,42.1,38.2,29.90,WNW,301,2.0,3.0,86,0.00,,,0.05,Wunderground v.1.15,2013-11-12 10:45:00,
2013-11-12 05:55:00,41.7,37.8,29.90,West,279,2.0,3.0,86,0.00,,,0.05,Wunderground v.1.15,2013-11-12 10:55:00,
2013-11-12 06:00:00,41.5,37.6,29.90,NNW,331,3.0,3.0,86,0.00,,,0.06,Wunderground v.1.15,2013-11-12 11:00:00,
2013-11-12 06:10:00,41.2,37.6,29.91,NNW,329,2.0,2.0,87,0.00,,,0.06,Wunderground v.1.15,2013-11-12 11:10:00,
2013-11-12 06:20:00,40.9,37.3,29.91,WNW,294,2.0,4.0,87,0.00,,,0.06,Wunderground v.1.15,2013-11-12 11:20:00,
2013-11-12 06:25:00,40.8,37.2,29.92,West,277,2.0,4.0,87,0.00,,,0.06,Wunderground v.1.15,2013-11-12 11:25:00,
2013-11-12 06:30:00,40.7,37.1,29.92,WNW,290,2.0,3.0,87,0.00,,,0.06,Wunderground v.1.15,2013-11-12 11:30:00,
2013-11-12 06:35:00,40.6,37.3,29.92,NW,315,2.0,3.0,88,0.00,,,0.07,Wunderground v.1.15,2013-11-12 11:35:00,
2013-11-12 06:45:00,40.2,36.6,29.94,WSW,255,2.0,4.0,87,0.00,,,0.07,Wunderground v.1.15,2013-11-12 11:45:00,
2013-11-12 06:55:00,38.6,34.8,29.95,WNW,285,4.0,4.0,86,0.08,,,0.09,Wunderground v.1.15,2013-11-12 11:55:00,
2013-11-12 07:05:00,37.1,33.9,29.95,North,5,3.0,5.0,88,0.05,,,0.09,Wunderground v.1.15,2013-11-12 12:05:00,
2013-11-12 07:10:00,36.5,33.3,29.96,North,5,3.0,3.0,88,0.04,,,0.10,Wunderground v.1.15,2013-11-12 12:10:00,
2013-11-12 07:20:00,35.7,32.8,29.97,North,355,2.0,3.0,89,0.04,,,0.10,Wunderground v.1.15,2013-11-12 12:20:00,
2013-11-12 07:30:00,35.3,32.4,29.98,NNW,335,2.0,3.0,89,0.00,,,0.10,Wunderground v.1.15,2013-11-12 12:30:00,
2013-11-12 07:40:00,35.4,32.8,29.98,West,275,1.0,2.0,90,0.00,,,0.11,Wunderground v.1.15,2013-11-12 12:40:00,
2013-11-12 07:50:00,35.5,32.9,29.99,North,355,2.0,2.0,90,0.00,,,0.11,Wunderground v.1.15,2013-11-12 12:50:00,
2013-11-12 08:00:00,35.5,32.9,29.99,NNE,17,3.0,3.0,90,0.00,,,0.11,Wunderground v.1.15,2013-11-12 13:00:00,
2013-11-12 08:05:00,35.4,32.8,29.99,NNW,331,3.0,3.0,90,0.00,,,0.11,Wunderground v.1.15,2013-11-12 13:05:00,
2013-11-12 08:15:00,35.3,32.4,29.99,WSW,252,2.0,3.0,89,0.00,,,0.11,Wunderground v.1.15,2013-11-12 13:15:00,
2013-11-12 08:25:00,35.4,32.5,29.99,NW,319,1.0,2.0,89,0.00,,,0.11,Wunderground v.1.15,2013-11-12 13:25:00,
2013-11-12 08:30:00,35.4,32.2,29.99,West,275,2.0,2.0,88,0.00,,,0.11,Wunderground v.1.15,2013-11-12 13:30:00,
2013-11-12 08:40:00,35.3,31.8,30.00,West,274,2.0,2.0,87,0.00,,,0.11,Wunderground v.1.15,2013-11-12 13:40:00,
2013-11-12 08:50:00,35.4,31.9,30.00,West,262,2.0,4.0,87,0.00,,,0.11,Wunderground v.1.15,2013-11-12 13:50:00,
2013-11-12 09:00:00,35.3,31.5,30.00,NNW,341,3.0,3.0,86,0.00,,,0.11,Wunderground v.1.15,2013-11-12 14:00:00,
2013-11-12 09:05:00,35.2,31.1,30.00,WNW,296,3.0,3.0,85,0.00,,,0.11,Wunderground v.1.15,2013-11-12 14:05:00,
2013-11-12 09:10:00,35.4,31.3,30.01,West,281,2.0,2.0,85,0.00,,,0.11,Wunderground v.1.15,2013-11-12 14:10:00,
2013-11-12 09:20:00,35.4,30.5,30.01,NNW,330,2.0,2.0,82,0.00,,,0.11,Wunderground v.1.15,2013-11-12 14:20:00,
2013-11-12 09:25:00,35.5,29.9,30.01,West,268,2.0,6.0,80,0.00,,,0.11,Wunderground v.1.15,2013-11-12 14:25:00,
2013-11-12 09:35:00,35.5,29.3,30.02,NW,313,2.0,2.0,78,0.00,,,0.11,Wunderground v.1.15,2013-11-12 14:35:00,
2013-11-12 09:40:00,35.6,29.1,30.02,North,5,2.0,2.0,77,0.00,,,0.11,Wunderground v.1.15,2013-11-12 14:40:00,
2013-11-12 09:50:00,35.5,28.4,30.02,West,281,2.0,3.0,75,0.00,,,0.11,Wunderground v.1.15,2013-11-12 14:50:00,
2013-11-12 10:00:00,35.4,26.2,30.02,NNW,343,2.0,2.0,69,0.00,,,0.11,Wunderground v.1.15,2013-11-12 15:00:00,
2013-11-12 10:10:00,35.4,25.9,30.02,North,355,2.0,2.0,68,0.00,,,0.11,Wunderground v.1.15,2013-11-12 15:10:00,
2013-11-12 10:20:00,35.5,25.3,30.03,NW,314,2.0,2.0,66,0.00,,,0.11,Wunderground v.1.15,2013-11-12 15:20:00,
2013-11-12 10:25:00,35.5,24.9,30.02,NNW,346,2.0,2.0,65,0.00,,,0.11,Wunderground v.1.15,2013-11-12 15:25:00,
2013-11-12 10:35:00,35.4,24.0,30.02,East,96,2.0,2.0,63,0.00,,,0.11,Wunderground v.1.15,2013-11-12 15:35:00,
2013-11-12 10:45:00,35.4,23.7,30.02,NNW,335,2.0,5.0,62,0.00,,,0.11,Wunderground v.1.15,2013-11-12 15:45:00,
2013-11-12 10:50:00,35.4,22.9,30.02,North,360,3.0,3.0,60,0.00,,,0.11,Wunderground v.1.15,2013-11-12 15:50:00,
2013-11-12 11:00:00,35.5,23.4,30.02,NW,319,2.0,2.0,61,0.00,,,0.11,Wunderground v.1.15,2013-11-12 16:00:00,
2013-11-12 11:10:00,35.5,22.6,30.01,NNW,330,3.0,3.0,59,0.00,,,0.11,Wunderground v.1.15,2013-11-12 16:10:00,
2013-11-12 11:20:00,35.5,23.0,30.02,SSE,153,3.0,3.0,60,0.00,,,0.11,Wunderground v.1.15,2013-11-12 16:20:00,
2013-11-12 11:30:00,35.4,22.9,30.02,WNW,291,3.0,3.0,60,0.00,,,0.11,Wunderground v.1.15,2013-11-12 16:30:00,
2013-11-12 11:40:00,35.3,22.4,30.02,WNW,300,3.0,3.0,59,0.00,,,0.11,Wunderground v.1.15,2013-11-12 16:40:00,
2013-11-12 11:50:00,35.1,22.2,30.01,South,170,2.0,2.0,59,0.00,,,0.11,Wunderground v.1.15,2013-11-12 16:50:00,
2013-11-12 11:55:00,35.2,22.7,30.01,NNW,348,2.0,2.0,60,0.00,,,0.11,Wunderground v.1.15,2013-11-12 16:55:00,
2013-11-12 12:05:00,35.2,22.3,30.02,North,355,2.0,3.0,59,0.00,,,0.11,Wunderground v.1.15,2013-11-12 17:05:00,
2013-11-12 12:15:00,35.0,22.1,30.02,NNE,16,3.0,3.0,59,0.00,,,0.11,Wunderground v.1.15,2013-11-12 17:15:00,
2013-11-12 12:20:00,35.1,22.6,30.02,North,355,3.0,3.0,60,0.00,,,0.11,Wunderground v.1.15,2013-11-12 17:20:00,
2013-11-12 12:30:00,35.2,22.3,30.02,NNW,346,2.0,3.0,59,0.00,,,0.11,Wunderground v.1.15,2013-11-12 17:30:00,
2013-11-12 12:35:00,35.2,22.7,30.02,WNW,290,3.0,3.0,60,0.00,,,0.11,Wunderground v.1.15,2013-11-12 17:35:00,
2013-11-12 12:40:00,35.3,22.8,30.02,NNW,340,3.0,7.0,60,0.00,,,0.11,Wunderground v.1.15,2013-11-12 17:40:00,
2013-11-12 12:50:00,35.6,23.5,30.02,WNW,292,2.0,2.0,61,0.00,,,0.11,Wunderground v.1.15,2013-11-12 17:50:00,
2013-11-12 13:00:00,35.4,23.3,30.02,NNW,337,3.0,3.0,61,0.00,,,0.11,Wunderground v.1.15,2013-11-12 18:00:00,
2013-11-12 13:05:00,35.4,23.3,30.02,NNE,21,3.0,3.0,61,0.00,,,0.11,Wunderground v.1.15,2013-11-12 18:05:00,
2013-11-12 13:15:00,35.4,23.3,30.02,NNE,30,3.0,3.0,61,0.00,,,0.11,Wunderground v.1.15,2013-11-12 18:15:00,
2013-11-12 13:20:00,35.4,22.9,30.02,NW,319,3.0,4.0,60,0.00,,,0.11,Wunderground v.1.15,2013-11-12 18:20:00,
2013-11-12 13:30:00,35.5,23.0,30.02,North,5,2.0,5.0,60,0.00,,,0.11,Wunderground v.1.15,2013-11-12 18:30:00,
2013-11-12 13:35:00,35.5,23.0,30.03,NNW,337,2.0,5.0,60,0.00,,,0.11,Wunderground v.1.15,2013-11-12 18:35:00,
2013-11-12 13:40:00,35.6,23.1,30.03,WNW,293,2.0,3.0,60,0.00,,,0.11,Wunderground v.1.15,2013-11-12 18:40:00,
2013-11-12 13:50:00,35.5,22.6,30.03,North,360,3.0,3.0,59,0.00,,,0.11,Wunderground v.1.15,2013-11-12 18:50:00,
2013-11-12 14:00:00,35.5,22.6,30.03,NNW,343,2.0,2.0,59,0.00,,,0.11,Wunderground v.1.15,2013-11-12 19:00:00,
2013-11-12 14:15:00,35.5,22.2,30.04,NNE,17,2.0,2.0,58,0.00,,,0.11,Wunderground v.1.15,2013-11-12 19:15:00,
2013-11-12 14:20:00,35.4,22.1,30.04,NNW,333,2.0,2.0,58,0.00,,,0.11,Wunderground v.1.15,2013-11-12 19:20:00,
2013-11-12 14:30:00,35.2,21.9,30.05,West,267,3.0,3.0,58,0.00,,,0.11,Wunderground v.1.15,2013-11-12 19:30:00,
2013-11-12 14:40:00,35.0,21.7,30.05,NNE,26,3.0,3.0,58,0.00,,,0.11,Wunderground v.1.15,2013-11-12 19:40:00,
2013-11-12 14:50:00,34.6,20.9,30.05,NW,317,4.0,4.0,57,0.00,,,0.11,Wunderground v.1.15,2013-11-12 19:50:00,
2013-11-12 15:00:00,34.4,20.3,30.05,NW,305,4.0,5.0,56,0.00,,,0.11,Wunderground v.1.15,2013-11-12 20:00:00,
2013-11-12 15:10:00,34.2,20.1,30.06,NW,326,4.0,4.0,56,0.00,,,0.11,Wunderground v.1.15,2013-11-12 20:10:00,
2013-11-12 15:20:00,34.1,19.6,30.07,WSW,254,2.0,6.0,55,0.00,,,0.11,Wunderground v.1.15,2013-11-12 20:20:00,
2013-11-12 15:30:00,34.0,19.5,30.07,West,281,3.0,5.0,55,0.00,,,0.11,Wunderground v.1.15,2013-11-12 20:30:00,
2013-11-12 15:35:00,33.9,19.0,30.07,NE,34,4.0,5.0,54,0.00,,,0.11,Wunderground v.1.15,2013-11-12 20:35:00,
2013-11-12 15:45:00,33.8,19.3,30.07,North,355,3.0,8.0,55,0.00,,,0.11,Wunderground v.1.15,2013-11-12 20:45:00,
2013-11-12 15:50:00,33.8,19.7,30.07,West,277,2.0,2.0,56,0.00,,,0.11,Wunderground v.1.15,2013-11-12 20:50:00,
2013-11-12 16:00:00,33.7,19.7,30.08,NW,313,2.0,2.0,56,0.00,,,0.11,Wunderground v.1.15,2013-11-12 21:00:00,
2013-11-12 16:05:00,33.7,19.7,30.08,West,277,2.0,2.0,56,0.00,,,0.11,Wunderground v.1.15,2013-11-12 21:05:00,
2013-11-12 16:15:00,33.6,19.6,30.08,West,269,3.0,3.0,56,0.00,,,0.11,Wunderground v.1.15,2013-11-12 21:15:00,
2013-11-12 16:20:00,33.6,19.6,30.08,WNW,289,3.0,3.0,56,0.00,,,0.11,Wunderground v.1.15,2013-11-12 21:20:00,
2013-11-12 16:30:00,33.5,19.5,30.08,NE,35,2.0,2.0,56,0.00,,,0.11,Wunderground v.1.15,2013-11-12 21:30:00,
2013-11-12 16:35:00,33.5,19.5,30.09,NW,318,2.0,2.0,56,0.00,,,0.11,Wunderground v.1.15,2013-11-12 21:35:00,
2013-11-12 16:40:00,33.5,19.5,30.08,NW,313,2.0,2.0,56,0.00,,,0.11,Wunderground v.1.15,2013-11-12 21:40:00,
2013-11-12 16:50:00,33.4,19.8,30.09,West,281,1.0,2.0,57,0.00,,,0.11,Wunderground v.1.15,2013-11-12 21:50:00,
2013-11-12 16:55:00,33.4,19.8,30.09,NW,325,1.0,3.0,57,0.00,,,0.11,Wunderground v.1.15,2013-11-12 21:55:00,
2013-11-12 17:05:00,33.3,19.7,30.10,West,260,2.0,2.0,57,0.00,,,0.11,Wunderground v.1.15,2013-11-12 22:05:00,
2013-11-12 17:10:00,33.2,19.6,30.10,West,263,2.0,2.0,57,0.00,,,0.11,Wunderground v.1.15,2013-11-12 22:10:00,
2013-11-12 17:20:00,33.2,19.6,30.10,WNW,300,2.0,2.0,57,0.00,,,0.11,Wunderground v.1.15,2013-11-12 22:20:00,
2013-11-12 17:30:00,33.1,19.9,30.10,NW,316,2.0,2.0,58,0.00,,,0.11,Wunderground v.1.15,2013-11-12 22:30:00,
2013-11-12 17:35:00,33.0,19.8,30.10,NNW,327,2.0,4.0,58,0.00,,,0.11,Wunderground v.1.15,2013-11-12 22:35:00,
2013-11-12 17:45:00,32.9,19.7,30.11,NNW,339,1.0,3.0,58,0.00,,,0.11,Wunderground v.1.15,2013-11-12 22:45:00,
2013-11-12 17:55:00,32.9,19.7,30.11,NNW,333,2.0,2.0,58,0.00,,,0.11,Wunderground v.1.15,2013-11-12 22:55:00,
2013-11-12 18:10:00,33.1,19.5,30.11,North,5,2.0,2.0,57,0.00,,,0.11,Wunderground v.1.15,2013-11-12 23:10:00,
2013-11-12 18:15:00,33.2,19.2,30.11,West,279,3.0,3.0,56,0.00,,,0.11,Wunderground v.1.15,2013-11-12 23:15:00,
2013-11-12 18:25:00,33.2,18.8,30.11,NNW,334,2.0,4.0,55,0.00,,,0.11,Wunderground v.1.15,2013-11-12 23:25:00,
2013-11-12 18:30:00,33.2,18.8,30.11,NNW,331,2.0,2.0,55,0.00,,,0.11,Wunderground v.1.15,2013-11-12 23:30:00,
2013-11-12 18:40:00,33.3,18.9,30.11,NW,315,2.0,3.0,55,0.00,,,0.11,Wunderground v.1.15,2013-11-12 23:40:00,
2013-11-12 18:45:00,33.3,18.4,30.11,NW,304,3.0,4.0,54,0.00,,,0.11,Wunderground v.1.15,2013-11-12 23:45:00,
2013-11-12 18:55:00,33.4,18.5,30.11,SSW,209,2.0,3.0,54,0.00,,,0.11,Wunderground v.1.15,2013-11-12 23:55:00,
2013-11-12 19:00:00,33.4,18.5,30.12,West,277,2.0,2.0,54,0.00,,,0.11,Wunderground v.1.15,2013-11-13 00:00:00,
2013-11-12 19:05:00,33.4,18.5,30.12,NW,309,3.0,3.0,54,0.00,,,0.11,Wunderground v.1.15,2013-11-13 00:05:00,
2013-11-12 19:10:00,33.3,18.4,30.12,North,360,3.0,3.0,54,0.00,,,0.11,Wunderground v.1.15,2013-11-13 00:10:00,
2013-11-12 19:20:00,33.2,18.8,30.12,NW,320,2.0,2.0,55,0.00,,,0.11,Wunderground v.1.15,2013-11-13 00:20:00,
2013-11-12 19:30:00,33.0,18.6,30.12,NW,323,2.0,3.0,55,0.00,,,0.11,Wunderground v.1.15,2013-11-13 00:30:00,
2013-11-12 19:35:00,32.9,18.5,30.13,NNW,346,2.0,3.0,55,0.00,,,0.11,Wunderground v.1.15,2013-11-13 00:35:00,
2013-11-12 19:40:00,32.7,18.3,30.13,NNW,333,2.0,2.0,55,0.00,,,0.11,Wunderground v.1.15,2013-11-13 00:40:00,
2013-11-12 19:45:00,32.6,18.2,30.13,WSW,248,2.0,5.0,55,0.00,,,0.11,Wunderground v.1.15,2013-11-13 00:45:00,
2013-11-12 19:55:00,32.4,18.4,30.13,WNW,284,1.0,2.0,56,0.00,,,0.11,Wunderground v.1.15,2013-11-13 00:55:00,
2013-11-12 20:00:00,32.3,18.3,30.13,West,273,1.0,1.0,56,0.00,,,0.11,Wunderground v.1.15,2013-11-13 01:00:00,
2013-11-12 20:05:00,32.1,18.6,30.13,West,265,1.0,1.0,57,0.00,,,0.11,Wunderground v.1.15,2013-11-13 01:05:00,
2013-11-12 20:15:00,31.8,18.3,30.13,WNW,303,1.0,2.0,57,0.00,,,0.11,Wunderground v.1.15,2013-11-13 01:15:00,
2013-11-12 20:25:00,31.5,18.4,30.14,NW,309,2.0,5.0,58,0.00,,,0.11,Wunderground v.1.15,2013-11-13 01:25:00,
2013-11-12 20:30:00,31.4,18.7,30.14,West,274,2.0,2.0,59,0.00,,,0.11,Wunderground v.1.15,2013-11-13 01:30:00,
2013-11-12 20:35:00,31.2,18.5,30.14,West,275,1.0,3.0,59,0.00,,,0.11,Wunderground v.1.15,2013-11-13 01:35:00,
2013-11-12 20:40:00,31.1,18.4,30.14,North,349,2.0,2.0,59,0.00,,,0.11,Wunderground v.1.15,2013-11-13 01:40:00,
2013-11-12 20:45:00,31.0,18.3,30.14,West,276,2.0,2.0,59,0.00,,,0.11,Wunderground v.1.15,2013-11-13 01:45:00,
2013-11-12 20:55:00,30.8,18.5,30.14,WNW,290,2.0,2.0,60,0.00,,,0.11,Wunderground v.1.15,2013-11-13 01:55:00,
2013-11-12 21:05:00,30.7,18.4,30.14,NW,322,2.0,3.0,60,0.00,,,0.11,Wunderground v.1.15,2013-11-13 02:05:00,
2013-11-12 21:15:00,30.5,18.3,30.14,West,281,2.0,2.0,60,0.00,,,0.11,Wunderground v.1.15,2013-11-13 02:15:00,
2013-11-12 21:25:00,30.4,18.2,30.15,SW,236,2.0,2.0,60,0.00,,,0.11,Wunderground v.1.15,2013-11-13 02:25:00,
2013-11-12 21:30:00,30.3,18.1,30.15,NNW,331,3.0,4.0,60,0.00,,,0.11,Wunderground v.1.15,2013-11-13 02:30:00,
2013-11-12 21:35:00,30.2,18.0,30.15,NW,306,2.0,4.0,60,0.00,,,0.11,Wunderground v.1.15,2013-11-13 02:35:00,
2013-11-12 21:40:00,30.2,18.0,30.15,West,270,2.0,3.0,60,0.00,,,0.11,Wunderground v.1.15,2013-11-13 02:40:00,
2013-11-12 21:50:00,30.1,17.9,30.15,NW,313,2.0,3.0,60,0.00,,,0.11,Wunderground v.1.15,2013-11-13 02:50:00,
2013-11-12 21:55:00,30.0,17.8,30.15,NNW,331,3.0,4.0,60,0.00,,,0.11,Wunderground v.1.15,2013-11-13 02:55:00,
2013-11-12 22:00:00,30.0,17.8,30.15,NW,305,3.0,3.0,60,0.00,,,0.11,Wunderground v.1.15,2013-11-13 03:00:00,
2013-11-12 22:05:00,29.9,17.7,30.16,NNE,19,3.0,3.0,60,0.00,,,0.11,Wunderground v.1.15,2013-11-13 03:05:00,
2013-11-12 22:15:00,29.9,17.7,30.16,WNW,294,2.0,2.0,60,0.00,,,0.11,Wunderground v.1.15,2013-11-13 03:15:00,
2013-11-12 22:21:00,29.8,17.6,30.16,NW,320,2.0,2.0,60,0.00,,,0.11,Wunderground v.1.15,2013-11-13 03:21:00,
2013-11-12 22:30:00,29.7,17.5,30.15,West,267,2.0,2.0,60,0.00,,,0.11,Wunderground v.1.15,2013-11-13 03:30:00,
2013-11-12 22:35:00,29.6,17.4,30.15,West,269,2.0,2.0,60,0.00,,,0.11,Wunderground v.1.15,2013-11-13 03:35:00,
2013-11-12 22:40:00,29.5,17.3,30.15,West,273,2.0,4.0,60,0.00,,,0.11,Wunderground v.1.15,2013-11-13 03:40:00,
2013-11-12 22:45:00,29.4,17.6,30.15,West,272,1.0,1.0,61,0.00,,,0.11,Wunderground v.1.15,2013-11-13 03:45:00,
2013-11-12 22:50:00,29.3,17.5,30.16,WNW,286,2.0,5.0,61,0.00,,,0.11,Wunderground v.1.15,2013-11-13 03:50:00,
2013-11-12 22:55:00,29.2,17.4,30.16,NW,321,2.0,2.0,61,0.00,,,0.11,Wunderground v.1.15,2013-11-13 03:55:00,
2013-11-12 23:00:00,29.2,17.0,30.16,West,275,2.0,2.0,60,0.00,,,0.11,Wunderground v.1.15,2013-11-13 04:00:00,
2013-11-12 23:05:00,29.1,17.3,30.16,NW,317,2.0,2.0,61,0.00,,,0.11,Wunderground v.1.15,2013-11-13 04:05:00,
2013-11-12 23:15:00,29.0,17.2,30.16,WNW,288,1.0,1.0,61,0.00,,,0.11,Wunderground v.1.15,2013-11-13 04:15:00,
2013-11-12 23:25:00,28.8,17.0,30.17,West,277,1.0,2.0,61,0.00,,,0.11,Wunderground v.1.15,2013-11-13 04:25:00,
2013-11-12 23:30:00,28.7,17.3,30.17,West,277,1.0,1.0,62,0.00,,,0.11,Wunderground v.1.15,2013-11-13 04:30:00,
2013-11-12 23:40:00,28.6,17.6,30.16,NW,304,1.0,1.0,63,0.00,,,0.11,Wunderground v.1.15,2013-11-13 04:40:00,
2013-11-12 23:50:00,28.5,17.5,30.16,West,272,2.0,2.0,63,0.00,,,0.11,Wunderground v.1.15,2013-11-13 04:50:00,